Weather Roundup
Issued by NWS Chicago, IL

Home | Current Version | Previous Version | Graphics & Text | Print | Product List | Glossary On
Versions: 1 2 3 4 5 6 7 8 9 10 11 12 13 14 15 16 17 18 19 20 21 22 23 24 25 26 27 28 29 30 31 32 33 34 35 36 37 38 39 40 41 42 43 44 45 46 47 48 49 50
207
NZUS59 KLOT 102108
HRRLOT

CHICAGO AREA WEATHER ROUNDUP
NATIONAL WEATHER SERVICE CHICAGO/ROMEOVILLE IL
300 PM CST WED FEB 10 2016

NOTE: "FAIR" INDICATES FEW OR NO CLOUDS BELOW 12,000 FEET WITH NO
SIGNIFICANT WEATHER AND/OR OBSTRUCTIONS TO VISIBILITY.

* THESE STATIONS ARE NOT UNDER NWS QUALITY CONTROL. THEY ALSO MAY NOT
  REPORT WEATHER SUCH AS PRECIPITATION OR FOG.

ILZ005-006-012>014-019>023-102200-
NORTHEAST ILLINOIS

CITY           SKY/WX    TMP DP  RH WIND       PRES   REMARKS
OHARE          MOSUNNY   17   2  51 NW12      30.01S WCI   4
MIDWAY         PTSUNNY   19   2  47 W15       30.02S WCI   5
AURORA         MOSUNNY   17   5  59 NW8       30.03S WCI   7
LANSING*       PTSUNNY   19   4  54 W9        30.02R WCI   7
JOLIET*        SUNNY     19   5  55 NW8       30.05R WCI   9
WAUKEGAN       CLOUDY    15   1  53 NW6       30.01R WCI   6
DUPAGE AIRPORT PTSUNNY   16   2  54 NW14G20   30.01R WCI   2
WHEELING       PTSUNNY   17   3  54 NW15      30.03R WCI   2
KANKAKEE*      MOSUNNY   18   5  57 W8        30.05R WCI   7
MORRIS*        MOSUNNY   19   6  55 NW10      30.02R WCI   8
LEWIS AIRPORT* MOSUNNY   17   5  58 NW13      30.03R WCI   4
$$

WIZ051-052-058>065-066-070>072-102200-
SOUTHEAST WISCONSIN

CITY           SKY/WX    TMP DP  RH WIND       PRES   REMARKS
MILWAUKEE      PTSUNNY   14  -2  49 NW10      30.02R WCI   1
KENOSHA*       PTSUNNY   13   1  59 NW10      30.01R WCI   0
RACINE*        PTSUNNY   14  -2  49 NW9       30.03R WCI   2
BURLINGTON     CLOUDY    13   0  55 NW10      30.02R WCI   0
WAUKESHA       CLOUDY    10  -2  56 NW12      30.01R WCI  -4
WEST BEND      MOSUNNY   14  -2  48 NW12G17   30.01R WCI   0
$$

INZ001>003-010>013-019-020-102200-
NORTHWEST INDIANA

CITY           SKY/WX    TMP DP  RH WIND       PRES   REMARKS
GARY*          PTSUNNY   19   1  45 W12       30.03R WCI   7
MICHIGAN CITY* NOT AVBL
RENSSELAER*    NOT AVBL
VALPARAISO     CLOUDY    17   5  59 W9        30.01R WCI   6
$$

LMZ740>746-102200-
SOUTHERN LAKE MICHIGAN

STATION/POSITION TIME  SKY/WX   TEMP WIND        PRES    VSBY
                                AIR  DIR/SP/G
                 (UTC)          (F)  (DEG/KT/KT) (MB)    (MI)
HARRISON CRIB    2000            17  310/ 10/ 13   N/A
BURNHAM HARBOR   2100            19  280/ 10/ 14   N/A
CALUMET HARBOR   2000            18  260/  5/ 10 1015.7R
BURNS HARBOR     2000            17  290/ 10/ 17 1016.6S
MICHIGAN CITY    2000            15  260/ 14/ 18   N/A
$$

ABBREVIATIONS USED IN REMARKS
   TC - TEMPERATURE IN CELSIUS
  WCI - WIND CHILL INDEX
   HX - HEAT INDEX
  VSB - VISIBILITY
$$




USA.gov is the U.S. government's official web portal to all federal, state and local government web resources and services.